[[{"header":{"parameterUnit":"m.s-1","parameterCategory":2,"la1":30.2991,"la2":30.254,"lo1":-89.0895,"lo2":-89.0444,"dy":0.0017,"dx":0.0017,"nx":28,"ny":28,"refTime":"2023-10-16T03:00:00:Z","depth":"0","parameterNumber":2,"parameterNumberName":"U-component_of_CURRENTS"},"data":[0,0,0,0,0,0,0,0,0,0,0,0,0,0,0,0,0,0,0,0,0,0,0,0,0,0,0,0,0,0,0,0,0,0,0,0,0,0,0,0,0,0,0,0,0,0,0,0,0,0,0,0,0,0,0,0,0,0,-0.1662,-0.1662,0,-0.1666,-0.1666,-0.1666,-0.1658,-0.1658,-0.1658,-0.1657,-0.168,-0.1681,-0.1682,0,0,0,0,0,0,0,0,0,0,0,0,0,-0.1654,-0.1654,-0.1662,-0.1662,-0.1662,-0.1666,-0.1666,-0.1666,-0.1658,-0.1658,-0.1658,-0.1657,-0.168,-0.1681,-0.1682,0,0,0,0,0,0,0,0,0,0,0,0,0,-0.1657,-0.1654,-0.1662,-0.166,-0.166,-0.1666,-0.1666,-0.1666,-0.1658,-0.1658,-0.1658,-0.1657,-0.168,-0.1681,-0.1682,-0.1694,0,0,-0.1686,-0.1686,0,0,0,0,0,0,0,0,-0.1657,-0.1657,-0.166,-0.166,-0.166,-0.1662,-0.1671,-0.1676,-0.1658,-0.1657,-0.1657,-0.1657,-0.1677,-0.1678,-0.1678,-0.1695,-0.1696,-0.1686,-0.1686,-0.1687,-0.1687,0,0,0,0,0,0,0,-0.1657,-0.1657,-0.1662,-0.166,-0.166,-0.1661,-0.1661,-0.1672,-0.1668,-0.1657,-0.1657,-0.1659,-0.1677,-0.1677,-0.1678,-0.1696,-0.1686,-0.1687,-0.1687,-0.1688,-0.1745,-0.1746,0,0,0,0,0,0,-0.1658,-0.1657,-0.1662,-0.1663,-0.1659,-0.1661,-0.1661,-0.1661,-0.1667,-0.1668,-0.166,-0.1659,-0.1675,-0.1677,-0.1679,-0.1734,-0.1687,-0.1688,-0.1689,-0.1744,-0.1745,-0.1746,0,0,0,0,0,0,-0.1658,-0.1659,-0.1662,-0.1661,-0.1661,-0.1661,-0.1661,-0.1661,-0.166,-0.1669,-0.167,-0.1659,-0.1675,-0.1678,-0.1684,-0.1733,-0.1688,-0.1689,-0.1743,-0.1745,-0.1746,-0.1817,0,0,0,0,0,0,-0.1658,-0.1658,-0.1657,-0.1661,-0.1662,-0.1663,-0.1662,-0.1661,-0.1662,-0.1662,-0.1669,-0.1671,-0.1675,-0.1682,-0.1685,-0.1734,-0.169,-0.1742,-0.1744,-0.1745,-0.1814,-0.1821,-0.1827,0,0,0,0,0,-0.1657,-0.1656,-0.1657,-0.1658,-0.166,-0.1663,-0.1663,-0.1662,-0.1663,-0.1661,-0.1664,-0.1671,-0.1695,-0.1683,-0.1687,-0.1737,-0.1741,-0.1743,-0.1745,-0.1811,-0.182,-0.1827,0,0,0,0,0,0,-0.1653,-0.1655,-0.1656,-0.1656,-0.1659,-0.1662,-0.1661,-0.1663,-0.1664,-0.1664,-0.1671,-0.1673,-0.1706,-0.1699,-0.1685,-0.1756,-0.1724,-0.1727,-0.1773,-0.1781,-0.1788,-0.1856,-0.1691,0,0,0,0,0,-0.1652,-0.1649,-0.1655,-0.1654,-0.1655,-0.1659,-0.166,-0.1661,-0.1664,-0.1664,-0.1668,-0.1682,-0.1717,-0.1727,-0.1742,-0.177,-0.1722,-0.1805,-0.1812,-0.1818,-0.1874,-0.1785,-0.1788,-0.1753,-0.1752,-0.1752,0,0,-0.1651,-0.1652,-0.165,-0.1653,-0.1654,-0.1672,-0.1658,-0.166,-0.1694,-0.1668,-0.1699,-0.1702,-0.1727,-0.1767,-0.1782,-0.1767,-0.1796,-0.182,-0.1825,-0.188,-0.1787,-0.179,-0.1793,-0.1754,-0.1754,-0.1753,0,0,-0.1648,-0.1647,-0.1645,-0.1652,-0.1657,-0.1671,-0.1674,-0.1676,-0.1695,-0.1709,-0.1726,-0.1769,-0.1765,-0.1833,-0.1862,-0.1914,-0.1832,-0.1891,-0.1986,-0.1897,-0.1899,-0.1901,-0.1814,-0.1807,-0.1895,-0.1895,-0.1895,0,-0.1648,-0.1662,-0.1646,-0.1654,-0.1693,-0.1676,-0.1718,-0.1725,-0.1731,-0.1777,-0.1721,-0.1789,-0.1824,-0.1932,-0.1971,-0.1942,-0.1843,-0.1955,-0.1905,-0.1906,-0.1906,-0.1817,-0.1809,-0.1899,-0.1898,-0.1898,-0.1898,0,-0.165,-0.1671,-0.1674,-0.1697,-0.1727,-0.1754,-0.1783,-0.1809,-0.1819,-0.1836,-0.1901,-0.191,-0.1965,-0.198,-0.2007,-0.2062,-0.1972,-0.1917,-0.1885,-0.1914,-0.1817,-0.1808,-0.1904,-0.1903,-0.1902,-0.1901,0,0,-0.1642,-0.1676,-0.168,-0.1743,-0.1771,-0.1818,-0.1876,-0.1962,-0.2006,-0.1993,-0.204,-0.2153,-0.2134,-0.217,-0.2178,-0.2144,-0.2086,-0.2042,-0.2035,-0.196,-0.1844,-0.1818,-0.1804,-0.1965,-0.1964,-0.1964,-0.1763,0,-0.1668,-0.1737,-0.1741,-0.1846,-0.1915,-0.1951,-0.2013,-0.2082,-0.2089,-0.2099,-0.2141,-0.215,-0.2203,-0.2191,-0.219,-0.21,-0.2066,-0.2145,-0.1829,-0.1822,-0.1797,-0.1796,-0.1746,-0.1565,-0.1753,-0.1751,-0.175,0,-0.1675,-0.1752,-0.1855,-0.1999,-0.2029,-0.2076,-0.2219,-0.2259,-0.2278,-0.2265,-0.2282,-0.2223,-0.2269,-0.2216,-0.2134,-0.2147,-0.2047,-0.1955,-0.1942,-0.1906,-0.1781,-0.1573,-0.154,-0.1469,-0.1734,-0.1736,-0.1737,0,-0.173,-0.1842,-0.1959,-0.1998,-0.2121,-0.2202,-0.2272,-0.2327,-0.2335,-0.2328,-0.2256,-0.2281,-0.2207,-0.2119,-0.2013,-0.2019,-0.1817,-0.178,-0.1674,-0.1668,-0.1575,-0.1563,-0.1455,-0.1703,-0.1703,-0.1704,-0.1704,0,-0.1764,-0.186,-0.2,-0.2057,-0.2221,-0.2284,-0.2368,-0.2428,-0.2388,-0.2349,-0.233,-0.2242,-0.2155,-0.2024,-0.196,-0.1798,-0.1773,-0.1718,-0.1626,-0.1595,-0.1588,-0.1484,-0.1465,-0.1696,-0.1698,-0.1699,-0.17,0,-0.1759,-0.1836,-0.1997,-0.2175,-0.2229,-0.2349,-0.2394,-0.2391,-0.2385,-0.2294,-0.2257,-0.2155,-0.2006,-0.1912,-0.1724,-0.1697,-0.1495,-0.1503,-0.149,-0.1406,-0.1286,-0.1273,-0.1113,-0.1064,-0.1354,-0.1353,-0.1351,0,-0.1754,-0.1824,-0.2058,-0.2141,-0.2211,-0.2343,-0.2358,-0.239,-0.2333,-0.2232,-0.2148,-0.1989,-0.1873,-0.1638,-0.1543,-0.14,-0.137,-0.1266,-0.1342,-0.1303,-0.1217,-0.1226,-0.1198,-0.121,-0.1207,-0.1205,-0.1204,0,-0.1748,-0.1823,-0.1957,-0.2125,-0.2204,-0.2253,-0.228,-0.2238,-0.2198,-0.2116,-0.1968,-0.1866,-0.167,-0.1502,-0.1349,-0.1271,-0.1214,-0.1223,-0.1157,-0.1113,-0.1135,-0.1033,-0.1322,-0.1186,-0.1188,-0.1189,-0.119,-0.1191,-0.1734,-0.1824,-0.196,-0.212,-0.2173,-0.2133,-0.2097,-0.206,-0.1972,-0.1801,-0.1803,-0.1626,-0.147,-0.1266,-0.1172,-0.1003,-0.1064,-0.0957,-0.0941,-0.0952,-0.0943,-0.1229,-0.1017,-0.1018,-0.1019,-0.1019,-0.102,0,-0.1682,-0.1773,-0.1918,-0.2052,-0.2016,-0.2066,-0.1983,-0.1866,-0.1719,-0.1637,-0.1518,-0.1347,-0.1169,-0.1029,-0.0853,-0.074,-0.0728,-0.0683,-0.0674,-0.0657,-0.0859,-0.0896,-0.0678,-0.0678,-0.0678,-0.0678,-0.0679,-0.0679,-0.1663,-0.1745,-0.1834,-0.1843,-0.1875,-0.1708,-0.1621,-0.1487,-0.139,-0.1212,-0.1109,-0.1078,-0.0949,-0.0758,-0.056,-0.0515,-0.0437,-0.0423,-0.041,-0.0548,-0.0573,-0.0597,-0.0628,-0.0357,-0.0357,-0.0205,-0.0203,-0.0202]},{"header":{"parameterUnit":"m.s-1","parameterCategory":2,"la1":30.2991,"la2":30.254,"lo1":-89.0895,"lo2":-89.0444,"dy":0.0017,"dx":0.0017,"nx":28,"ny":28,"refTime":"2023-10-16T03:00:00:Z","depth":"0","parameterNumber":3,"parameterNumberName":"V-component_of_CURRENTS"},"data":[0,0,0,0,0,0,0,0,0,0,0,0,0,0,0,0,0,0,0,0,0,0,0,0,0,0,0,0,0,0,0,0,0,0,0,0,0,0,0,0,0,0,0,0,0,0,0,0,0,0,0,0,0,0,0,0,0,0,-0.0605,-0.0605,0,-0.0629,-0.0629,-0.0629,-0.063,-0.063,-0.063,-0.063,-0.059,-0.0589,-0.0588,0,0,0,0,0,0,0,0,0,0,0,0,0,-0.0545,-0.0546,-0.0605,-0.0605,-0.0606,-0.0629,-0.0629,-0.0629,-0.063,-0.063,-0.063,-0.063,-0.059,-0.0589,-0.0588,0,0,0,0,0,0,0,0,0,0,0,0,0,-0.0569,-0.0546,-0.0605,-0.061,-0.0611,-0.0629,-0.0629,-0.0629,-0.063,-0.063,-0.063,-0.0629,-0.0591,-0.0589,-0.0588,-0.0584,0,0,-0.0584,-0.0583,0,0,0,0,0,0,0,0,-0.0567,-0.0571,-0.0609,-0.061,-0.0611,-0.0627,-0.0593,-0.0611,-0.063,-0.0621,-0.063,-0.0629,-0.0598,-0.0596,-0.06,-0.0582,-0.0581,-0.0584,-0.0583,-0.0582,-0.0582,0,0,0,0,0,0,0,-0.0566,-0.057,-0.0613,-0.0609,-0.061,-0.0606,-0.0609,-0.0597,-0.0608,-0.0622,-0.0623,-0.0628,-0.0597,-0.0601,-0.0599,-0.058,-0.0584,-0.0582,-0.0582,-0.0581,-0.0563,-0.0563,0,0,0,0,0,0,-0.0567,-0.0568,-0.0612,-0.0614,-0.0589,-0.0607,-0.0611,-0.0621,-0.061,-0.0609,-0.0628,-0.0628,-0.0603,-0.06,-0.0597,-0.06,-0.0582,-0.0581,-0.058,-0.0562,-0.0563,-0.0563,0,0,0,0,0,0,-0.0565,-0.0571,-0.0611,-0.0592,-0.0597,-0.0609,-0.062,-0.0622,-0.0626,-0.0615,-0.0612,-0.0631,-0.0603,-0.0599,-0.0593,-0.0598,-0.058,-0.0579,-0.0562,-0.0562,-0.0563,-0.06,0,0,0,0,0,0,-0.0564,-0.057,-0.0575,-0.0592,-0.0598,-0.0623,-0.0621,-0.0622,-0.063,-0.063,-0.0617,-0.0613,-0.0603,-0.0595,-0.0592,-0.0596,-0.0578,-0.0562,-0.0562,-0.0563,-0.0598,-0.0601,-0.0604,0,0,0,0,0,-0.0561,-0.0569,-0.0575,-0.0581,-0.0606,-0.0623,-0.0626,-0.0632,-0.063,-0.0634,-0.0629,-0.0613,-0.0596,-0.0595,-0.059,-0.0594,-0.0561,-0.0562,-0.0563,-0.0597,-0.0601,-0.0604,0,0,0,0,0,0,-0.0543,-0.0571,-0.0578,-0.0593,-0.0608,-0.0624,-0.0628,-0.0633,-0.0633,-0.0631,-0.0618,-0.0615,-0.0612,-0.0597,-0.0596,-0.059,-0.0576,-0.0576,-0.0603,-0.0606,-0.061,-0.0572,-0.0577,0,0,0,0,0,-0.0543,-0.0559,-0.0581,-0.0593,-0.0601,-0.0615,-0.0622,-0.0628,-0.0633,-0.0633,-0.0626,-0.0617,-0.0612,-0.0605,-0.0598,-0.0593,-0.0544,-0.0592,-0.0595,-0.0597,-0.0564,-0.047,-0.0461,-0.0566,-0.0566,-0.0566,0,0,-0.0539,-0.0557,-0.0565,-0.059,-0.0602,-0.0621,-0.0618,-0.0631,-0.0645,-0.0627,-0.0636,-0.0627,-0.0615,-0.0615,-0.0611,-0.0602,-0.0558,-0.0598,-0.0601,-0.0565,-0.047,-0.0459,-0.0449,-0.0566,-0.0566,-0.0566,0,0,-0.054,-0.0556,-0.0569,-0.0586,-0.0607,-0.0621,-0.0626,-0.0643,-0.0648,-0.0656,-0.065,-0.0629,-0.0635,-0.0614,-0.0608,-0.0617,-0.058,-0.0635,-0.0616,-0.0527,-0.0516,-0.0506,-0.0496,-0.0484,-0.0633,-0.0633,-0.0634,0,-0.0533,-0.0565,-0.0573,-0.0592,-0.0615,-0.0624,-0.0648,-0.0653,-0.0665,-0.0653,-0.0661,-0.0623,-0.0624,-0.0592,-0.0612,-0.0619,-0.059,-0.0607,-0.0527,-0.0516,-0.0504,-0.0496,-0.0482,-0.0635,-0.0635,-0.0635,-0.0635,0,-0.0548,-0.0577,-0.0587,-0.0622,-0.0636,-0.0664,-0.0678,-0.0677,-0.0683,-0.0675,-0.0641,-0.0625,-0.0584,-0.0604,-0.0619,-0.0554,-0.0571,-0.0544,-0.0513,-0.0495,-0.0489,-0.0475,-0.0638,-0.0637,-0.0637,-0.0636,0,0,-0.0537,-0.059,-0.0597,-0.0623,-0.0664,-0.0677,-0.0688,-0.0693,-0.0658,-0.066,-0.0604,-0.0612,-0.0567,-0.0555,-0.0552,-0.0494,-0.0437,-0.0497,-0.0492,-0.048,-0.0293,-0.0387,-0.0381,-0.0394,-0.039,-0.0387,-0.0344,0,-0.0558,-0.0618,-0.0627,-0.0675,-0.0718,-0.0715,-0.0707,-0.0697,-0.0676,-0.0616,-0.0574,-0.0523,-0.056,-0.0524,-0.0473,-0.0434,-0.0389,-0.0454,-0.0316,-0.0313,-0.0389,-0.0362,-0.0395,-0.0364,-0.0329,-0.0327,-0.0325,0,-0.0575,-0.063,-0.0694,-0.0714,-0.0719,-0.0729,-0.0703,-0.0688,-0.0604,-0.0567,-0.0494,-0.0449,-0.0383,-0.0392,-0.0295,-0.0338,-0.0315,-0.0288,-0.0284,-0.0331,-0.0376,-0.0362,-0.0338,-0.0318,-0.0302,-0.0304,-0.0305,0,-0.0602,-0.066,-0.0723,-0.0745,-0.0767,-0.076,-0.0744,-0.0678,-0.0625,-0.0518,-0.045,-0.036,-0.0301,-0.023,-0.0226,-0.0236,-0.0118,-0.0113,-0.0177,-0.0187,-0.0163,-0.0177,-0.0082,-0.0006,-0.0006,-0.0006,-0.0006,0,-0.0634,-0.0675,-0.0741,-0.078,-0.0792,-0.0781,-0.0717,-0.0681,-0.0567,-0.049,-0.0415,-0.0338,-0.0248,-0.0191,-0.0178,-0.016,-0.0077,-0.0157,-0.0157,-0.0191,-0.0206,-0.0146,-0.0132,-0.0004,-0.0005,-0.0005,-0.0005,0,-0.0656,-0.0697,-0.0781,-0.083,-0.0814,-0.083,-0.0721,-0.0645,-0.0557,-0.0451,-0.0411,-0.0302,-0.0245,-0.0198,-0.0098,-0.0114,-0.0058,-0.0086,-0.0187,-0.0199,-0.0248,-0.0237,-0.0079,-0.0036,-0.0123,-0.0125,-0.0126,0,-0.0673,-0.0727,-0.0829,-0.0835,-0.0857,-0.0829,-0.0757,-0.066,-0.0586,-0.0448,-0.0404,-0.0313,-0.0274,-0.0197,-0.0188,-0.0171,-0.0109,-0.0192,-0.0199,-0.0243,-0.0226,-0.0171,-0.0141,-0.0208,-0.021,-0.0211,-0.0213,0,-0.0729,-0.0781,-0.0868,-0.0879,-0.0856,-0.0805,-0.0727,-0.0676,-0.0554,-0.0477,-0.0412,-0.037,-0.0315,-0.0312,-0.0299,-0.028,-0.0166,-0.0229,-0.0189,-0.0214,-0.0219,-0.0183,-0.0307,-0.0227,-0.0226,-0.0225,-0.0224,-0.0223,-0.0775,-0.0863,-0.0938,-0.0934,-0.0885,-0.0811,-0.0762,-0.0686,-0.0605,-0.0528,-0.0485,-0.0442,-0.0415,-0.0402,-0.0387,-0.0356,-0.0279,-0.0328,-0.0296,-0.0225,-0.021,-0.0425,-0.04,-0.04,-0.0399,-0.0399,-0.0399,0,-0.0832,-0.0896,-0.0926,-0.0945,-0.0865,-0.0821,-0.0733,-0.0686,-0.0639,-0.0597,-0.0564,-0.0532,-0.053,-0.0478,-0.0439,-0.041,-0.0331,-0.0372,-0.026,-0.0212,-0.0329,-0.0364,-0.0431,-0.0431,-0.0431,-0.0431,-0.0431,-0.0431,-0.0863,-0.0942,-0.0973,-0.0909,-0.0865,-0.0777,-0.0742,-0.0711,-0.0673,-0.0615,-0.0581,-0.0562,-0.0436,-0.04,-0.0349,-0.0353,-0.0246,-0.0279,-0.0191,-0.0273,-0.0265,-0.0257,-0.0284,-0.0333,-0.0333,-0.0051,-0.0049,-0.0047]}],[{"header":{"parameterUnit":"m.s-1","parameterCategory":2,"la1":30.2991,"la2":30.254,"lo1":-89.0895,"lo2":-89.0444,"dy":0.0017,"dx":0.0017,"nx":28,"ny":28,"refTime":"2023-10-16T03:00:00:Z","depth":"2","parameterNumber":2,"parameterNumberName":"U-component_of_CURRENTS"},"data":[0,0,0,0,0,0,0,0,0,0,0,0,0,0,0,0,0,0,0,0,0,0,0,0,0,0,0,0,0,0,0,0,0,0,0,0,0,0,0,0,0,0,0,0,0,0,0,0,0,0,0,0,0,0,0,0,0,0,-0.1623,-0.1623,0,-0.1619,-0.1619,-0.1619,-0.1609,-0.1609,-0.1609,-0.1609,-0.1632,-0.1632,-0.1633,0,0,0,0,0,0,0,0,0,0,0,0,0,-0.1628,-0.1628,-0.1623,-0.1623,-0.1623,-0.1619,-0.1619,-0.1619,-0.1609,-0.1609,-0.1609,-0.1609,-0.1632,-0.1632,-0.1633,0,0,0,0,0,0,0,0,0,0,0,0,0,-0.1625,-0.1628,-0.1623,-0.1618,-0.1618,-0.1619,-0.1619,-0.1619,-0.1609,-0.1609,-0.1609,-0.1609,-0.1631,-0.1632,-0.1633,-0.1644,0,0,-0.1637,-0.1637,0,0,0,0,0,0,0,0,-0.1625,-0.1624,-0.1619,-0.1619,-0.1618,-0.1615,-0.1629,-0.1629,-0.1609,-0.1612,-0.1609,-0.1609,-0.1629,-0.1631,-0.1629,-0.1645,-0.1646,-0.1637,-0.1637,-0.1638,-0.1638,0,0,0,0,0,0,0,-0.1625,-0.1624,-0.162,-0.1619,-0.1619,-0.1619,-0.1618,-0.1629,-0.1622,-0.1612,-0.1611,-0.1612,-0.1629,-0.1628,-0.1629,-0.1646,-0.1637,-0.1638,-0.1638,-0.1639,-0.1691,-0.1692,0,0,0,0,0,0,-0.1627,-0.1625,-0.1621,-0.162,-0.1622,-0.1619,-0.1618,-0.1616,-0.1621,-0.1621,-0.1612,-0.1612,-0.1626,-0.1628,-0.163,-0.1681,-0.1638,-0.1639,-0.164,-0.169,-0.1691,-0.1692,0,0,0,0,0,0,-0.1627,-0.1627,-0.1621,-0.1623,-0.1623,-0.1619,-0.1617,-0.1616,-0.1615,-0.1621,-0.1622,-0.1612,-0.1626,-0.1629,-0.1636,-0.168,-0.1639,-0.164,-0.1689,-0.169,-0.1691,-0.1758,0,0,0,0,0,0,-0.1627,-0.1627,-0.1625,-0.1623,-0.1623,-0.162,-0.1617,-0.1616,-0.1616,-0.1615,-0.1622,-0.1623,-0.1626,-0.1634,-0.1637,-0.1681,-0.1641,-0.1688,-0.169,-0.1691,-0.1754,-0.1761,-0.1766,0,0,0,0,0,-0.1627,-0.1625,-0.1625,-0.1624,-0.162,-0.162,-0.1619,-0.1616,-0.1616,-0.1614,-0.1617,-0.1623,-0.1645,-0.1635,-0.1638,-0.1684,-0.1688,-0.1689,-0.1691,-0.1752,-0.176,-0.1766,0,0,0,0,0,0,-0.1628,-0.1624,-0.1623,-0.162,-0.162,-0.1618,-0.1616,-0.1617,-0.1618,-0.1618,-0.1624,-0.1626,-0.1654,-0.1649,-0.1637,-0.17,-0.1671,-0.1674,-0.1717,-0.1724,-0.173,-0.1817,-0.1642,0,0,0,0,0,-0.1627,-0.1622,-0.1622,-0.162,-0.162,-0.1619,-0.1619,-0.1618,-0.1619,-0.1619,-0.1623,-0.1635,-0.1664,-0.1675,-0.1685,-0.1713,-0.1688,-0.1746,-0.1752,-0.1757,-0.1828,-0.1781,-0.179,-0.1697,-0.1697,-0.1697,0,0,-0.1627,-0.1624,-0.1622,-0.1619,-0.1618,-0.163,-0.1618,-0.1618,-0.1641,-0.1623,-0.1646,-0.1651,-0.1673,-0.1708,-0.1722,-0.171,-0.1758,-0.1759,-0.1763,-0.1834,-0.1784,-0.1793,-0.1801,-0.1698,-0.1698,-0.1698,0,0,-0.1625,-0.1621,-0.1618,-0.1621,-0.1622,-0.1631,-0.1633,-0.1632,-0.1644,-0.1655,-0.1669,-0.1724,-0.1707,-0.1781,-0.1807,-0.1857,-0.1786,-0.1819,-0.193,-0.1881,-0.1889,-0.1896,-0.1825,-0.1825,-0.1826,-0.1826,-0.1826,0,-0.1627,-0.1632,-0.1618,-0.1622,-0.1646,-0.1636,-0.1663,-0.1669,-0.1672,-0.1719,-0.1664,-0.1743,-0.1775,-0.1888,-0.1921,-0.1886,-0.18,-0.19,-0.189,-0.1897,-0.1903,-0.1829,-0.1829,-0.183,-0.1829,-0.1829,-0.1829,0,-0.1626,-0.1638,-0.1639,-0.1653,-0.1672,-0.1689,-0.171,-0.1734,-0.1742,-0.177,-0.1844,-0.1864,-0.1935,-0.194,-0.196,-0.2042,-0.1945,-0.1894,-0.1876,-0.1917,-0.1835,-0.1833,-0.1835,-0.1833,-0.1832,-0.1831,0,0,-0.162,-0.1639,-0.1641,-0.1681,-0.1701,-0.1729,-0.178,-0.186,-0.1926,-0.1917,-0.1994,-0.2097,-0.2112,-0.2149,-0.2157,-0.2156,-0.2138,-0.2052,-0.2047,-0.199,-0.1968,-0.1835,-0.1819,-0.2027,-0.2029,-0.203,-0.1874,0,-0.1637,-0.1673,-0.168,-0.1748,-0.1787,-0.1824,-0.1895,-0.1965,-0.1992,-0.2047,-0.2107,-0.2154,-0.2178,-0.2194,-0.2214,-0.2148,-0.2142,-0.2184,-0.1935,-0.193,-0.1813,-0.1819,-0.1723,-0.157,-0.1872,-0.1872,-0.1872,0,-0.1639,-0.168,-0.1744,-0.1856,-0.1879,-0.1925,-0.2068,-0.213,-0.222,-0.2224,-0.2286,-0.2265,-0.2345,-0.229,-0.2248,-0.2234,-0.2155,-0.2084,-0.2072,-0.195,-0.1797,-0.1588,-0.1555,-0.1868,-0.1868,-0.1869,-0.1869,0,-0.1665,-0.1735,-0.1806,-0.1832,-0.1938,-0.2011,-0.2101,-0.2211,-0.2248,-0.2329,-0.2289,-0.2368,-0.2325,-0.2274,-0.217,-0.2172,-0.2029,-0.1997,-0.1815,-0.1801,-0.169,-0.1665,-0.1978,-0.1978,-0.1978,-0.1979,-0.1979,0,-0.1686,-0.1744,-0.1831,-0.1867,-0.1988,-0.2081,-0.2207,-0.2279,-0.2338,-0.2333,-0.2388,-0.2312,-0.2299,-0.2195,-0.2146,-0.1957,-0.2001,-0.1866,-0.1768,-0.1701,-0.168,-0.1933,-0.193,-0.1973,-0.1974,-0.1975,-0.1976,0,-0.1677,-0.1726,-0.181,-0.1942,-0.1986,-0.2087,-0.2202,-0.2225,-0.2329,-0.2285,-0.2273,-0.2226,-0.2081,-0.2037,-0.1912,-0.1868,-0.1746,-0.1673,-0.159,-0.1489,-0.156,-0.1563,-0.1467,-0.1462,-0.1457,-0.1453,-0.1449,0,-0.1671,-0.1711,-0.1829,-0.1833,-0.188,-0.2025,-0.2043,-0.2188,-0.2153,-0.2183,-0.2071,-0.1982,-0.1833,-0.1639,-0.1566,-0.1441,-0.154,-0.1283,-0.1341,-0.1602,-0.1516,-0.1526,-0.1534,-0.119,-0.1185,-0.1181,-0.1178,0,-0.1657,-0.1689,-0.1735,-0.173,-0.1741,-0.1793,-0.184,-0.1822,-0.1917,-0.1872,-0.1738,-0.1661,-0.1495,-0.1321,-0.1211,-0.1139,-0.1311,-0.1188,-0.1456,-0.1338,-0.1329,-0.1249,-0.1268,-0.114,-0.1144,-0.1146,-0.1148,-0.115,-0.1614,-0.162,-0.1618,-0.1592,-0.1578,-0.1519,-0.1553,-0.1536,-0.1511,-0.1468,-0.1426,-0.1312,-0.1267,-0.1038,-0.0923,-0.087,-0.0976,-0.0963,-0.0982,-0.1004,-0.1003,-0.0986,-0.0732,-0.0733,-0.0734,-0.0735,-0.0736,0,-0.1548,-0.1503,-0.1453,-0.1425,-0.1326,-0.1383,-0.1335,-0.1341,-0.1279,-0.1228,-0.1164,-0.0973,-0.0829,-0.0796,-0.0656,-0.0599,-0.0652,-0.0563,-0.0666,-0.0702,-0.0735,-0.0728,-0.0379,-0.0378,-0.0377,-0.0376,0,0,-0.1499,-0.1408,-0.1346,-0.1155,-0.1137,-0.1056,-0.1033,-0.1025,-0.1014,-0.0947,-0.0899,-0.09,-0.0836,-0.0658,-0.0572,-0.0468,-0.0599,-0.0431,-0.0722,-0.0887,-0.092,-0.0962,-0.0989,0,0,0,0,0]},{"header":{"parameterUnit":"m.s-1","parameterCategory":2,"la1":30.2991,"la2":30.254,"lo1":-89.0895,"lo2":-89.0444,"dy":0.0017,"dx":0.0017,"nx":28,"ny":28,"refTime":"2023-10-16T03:00:00:Z","depth":"2","parameterNumber":3,"parameterNumberName":"V-component_of_CURRENTS"},"data":[0,0,0,0,0,0,0,0,0,0,0,0,0,0,0,0,0,0,0,0,0,0,0,0,0,0,0,0,0,0,0,0,0,0,0,0,0,0,0,0,0,0,0,0,0,0,0,0,0,0,0,0,0,0,0,0,0,0,-0.0427,-0.0427,0,-0.0448,-0.0448,-0.0448,-0.0452,-0.0452,-0.0452,-0.0452,-0.0418,-0.0417,-0.0416,0,0,0,0,0,0,0,0,0,0,0,0,0,-0.037,-0.0371,-0.0427,-0.0427,-0.0428,-0.0448,-0.0448,-0.0448,-0.0452,-0.0452,-0.0452,-0.0452,-0.0418,-0.0417,-0.0416,0,0,0,0,0,0,0,0,0,0,0,0,0,-0.0392,-0.0371,-0.0427,-0.0433,-0.0434,-0.0448,-0.0448,-0.0448,-0.0452,-0.0452,-0.0452,-0.0452,-0.0418,-0.0417,-0.0416,-0.0409,0,0,-0.0412,-0.0411,0,0,0,0,0,0,0,0,-0.039,-0.0394,-0.0432,-0.0433,-0.0434,-0.0449,-0.0415,-0.0433,-0.0452,-0.0444,-0.0452,-0.0452,-0.0424,-0.0422,-0.0425,-0.0407,-0.0406,-0.0412,-0.0411,-0.041,-0.041,0,0,0,0,0,0,0,-0.0389,-0.0393,-0.0434,-0.0432,-0.0434,-0.0428,-0.0431,-0.0419,-0.0432,-0.0444,-0.0445,-0.045,-0.0424,-0.0426,-0.0424,-0.0405,-0.0412,-0.0411,-0.041,-0.0409,-0.0401,-0.0401,0,0,0,0,0,0,-0.0391,-0.0391,-0.0433,-0.0435,-0.0413,-0.0429,-0.0433,-0.0443,-0.0433,-0.0432,-0.045,-0.045,-0.0429,-0.0426,-0.0423,-0.0438,-0.041,-0.0409,-0.0408,-0.04,-0.0401,-0.0401,0,0,0,0,0,0,-0.0389,-0.0394,-0.0432,-0.0414,-0.0419,-0.0431,-0.0442,-0.0443,-0.0449,-0.0438,-0.0436,-0.0455,-0.0428,-0.0425,-0.0423,-0.0436,-0.0409,-0.0407,-0.0399,-0.04,-0.0401,-0.0453,0,0,0,0,0,0,-0.0388,-0.0394,-0.04,-0.0415,-0.042,-0.0444,-0.0442,-0.0444,-0.0452,-0.0453,-0.0441,-0.0438,-0.0428,-0.0425,-0.0422,-0.0434,-0.0406,-0.0399,-0.04,-0.0401,-0.0451,-0.0456,-0.046,0,0,0,0,0,-0.0386,-0.0394,-0.04,-0.0405,-0.0429,-0.0444,-0.0447,-0.0453,-0.0453,-0.0458,-0.0455,-0.0439,-0.0429,-0.0425,-0.0421,-0.0432,-0.0398,-0.04,-0.0401,-0.0449,-0.0455,-0.046,0,0,0,0,0,0,-0.0371,-0.0396,-0.0403,-0.0419,-0.0433,-0.0446,-0.0451,-0.0456,-0.0458,-0.0458,-0.0445,-0.0442,-0.0448,-0.0431,-0.0426,-0.0433,-0.0411,-0.0411,-0.0449,-0.0454,-0.0459,-0.0427,-0.0405,0,0,0,0,0,-0.0372,-0.0387,-0.0407,-0.042,-0.0428,-0.044,-0.0447,-0.0453,-0.0459,-0.046,-0.0455,-0.0448,-0.0449,-0.0445,-0.0439,-0.0439,-0.0397,-0.0444,-0.0448,-0.0452,-0.0424,-0.0327,-0.0319,-0.0406,-0.0406,-0.0406,0,0,-0.037,-0.0386,-0.0394,-0.0418,-0.0429,-0.045,-0.0444,-0.0457,-0.0477,-0.0454,-0.0472,-0.0464,-0.0453,-0.0462,-0.0461,-0.0448,-0.0428,-0.0454,-0.0458,-0.0426,-0.0327,-0.0319,-0.0311,-0.0406,-0.0406,-0.0406,0,0,-0.0374,-0.0388,-0.0403,-0.0419,-0.0441,-0.0454,-0.0459,-0.0476,-0.0484,-0.0496,-0.0493,-0.0479,-0.0486,-0.0474,-0.0472,-0.0491,-0.0456,-0.0507,-0.0501,-0.0409,-0.04,-0.0391,-0.0418,-0.0411,-0.0507,-0.0507,-0.0507,0,-0.037,-0.0403,-0.0408,-0.0429,-0.0455,-0.0459,-0.0489,-0.0495,-0.0509,-0.0508,-0.0506,-0.048,-0.0483,-0.0469,-0.0494,-0.0498,-0.0476,-0.0486,-0.0412,-0.0402,-0.0392,-0.042,-0.0411,-0.0509,-0.0509,-0.0509,-0.0509,0,-0.039,-0.042,-0.0431,-0.0468,-0.0487,-0.0515,-0.0533,-0.0541,-0.0548,-0.0544,-0.0524,-0.0503,-0.047,-0.0493,-0.0508,-0.0456,-0.0481,-0.0431,-0.0393,-0.0386,-0.0418,-0.0408,-0.0513,-0.0512,-0.0511,-0.0511,0,0,-0.0385,-0.0438,-0.0445,-0.0483,-0.052,-0.0544,-0.0565,-0.0586,-0.0574,-0.0563,-0.0527,-0.0537,-0.0485,-0.0476,-0.0469,-0.0413,-0.038,-0.0404,-0.0397,-0.0425,-0.0258,-0.03,-0.0294,-0.0306,-0.0302,-0.0299,-0.0342,0,-0.041,-0.0475,-0.0487,-0.0554,-0.0601,-0.0609,-0.062,-0.0626,-0.0611,-0.0567,-0.0517,-0.0468,-0.049,-0.0451,-0.0401,-0.0371,-0.034,-0.0378,-0.0264,-0.0263,-0.0291,-0.0276,-0.0231,-0.0262,-0.0332,-0.033,-0.0329,0,-0.0434,-0.0489,-0.0562,-0.0619,-0.0633,-0.0656,-0.0674,-0.0667,-0.06,-0.0569,-0.0488,-0.0428,-0.0367,-0.0345,-0.0272,-0.0294,-0.0278,-0.0258,-0.0257,-0.0249,-0.028,-0.0262,-0.0241,-0.0312,-0.0313,-0.0314,-0.0315,0,-0.0464,-0.0539,-0.0611,-0.0638,-0.0689,-0.0708,-0.0707,-0.0669,-0.0647,-0.0526,-0.0485,-0.0375,-0.032,-0.0234,-0.0228,-0.0225,-0.0148,-0.0125,-0.016,-0.0169,-0.0081,-0.0085,-0.0033,-0.0033,-0.0033,-0.0033,-0.0033,0,-0.0502,-0.0558,-0.0633,-0.0678,-0.0736,-0.0731,-0.0718,-0.0699,-0.0611,-0.0579,-0.0461,-0.0421,-0.0275,-0.023,-0.02,-0.0177,-0.012,-0.0151,-0.0148,-0.0114,-0.012,-0.0097,-0.0103,-0.0035,-0.0034,-0.0034,-0.0034,0,-0.0526,-0.0569,-0.0668,-0.0745,-0.0757,-0.079,-0.0752,-0.0724,-0.064,-0.0586,-0.0539,-0.0446,-0.0385,-0.0298,-0.019,-0.0171,-0.0114,-0.012,-0.0159,-0.0157,-0.0221,-0.023,-0.0144,-0.0145,-0.0146,-0.0147,-0.0147,0,-0.0546,-0.0601,-0.0727,-0.0765,-0.0803,-0.0817,-0.0809,-0.0746,-0.072,-0.0637,-0.0634,-0.0539,-0.0492,-0.0378,-0.0273,-0.0196,-0.0182,-0.0133,-0.0084,-0.0209,-0.0215,-0.0223,-0.0231,-0.0043,-0.0042,-0.0042,-0.0042,0,-0.0603,-0.0651,-0.0738,-0.081,-0.0851,-0.0863,-0.0858,-0.0844,-0.0768,-0.0732,-0.0692,-0.0627,-0.0531,-0.0388,-0.0283,-0.0234,-0.0126,-0.0129,-0.0173,-0.0025,-0.0116,-0.0122,-0.0131,-0.004,-0.004,-0.004,-0.004,-0.004,-0.0644,-0.0719,-0.0804,-0.0856,-0.0888,-0.0884,-0.0871,-0.0848,-0.0801,-0.0714,-0.0727,-0.0584,-0.0519,-0.0296,-0.0233,-0.0132,-0.0171,-0.0102,-0.01,-0.01,-0.0083,-0.0169,-0.0108,-0.0109,-0.0109,-0.011,-0.011,0,-0.0699,-0.0749,-0.0814,-0.0878,-0.0882,-0.0888,-0.0881,-0.0833,-0.0776,-0.0695,-0.062,-0.0462,-0.0325,-0.0224,-0.0072,-0.0046,-0.0008,-0.0012,0.0044,0.004,0.0036,0.0063,0.0075,0.0076,0.0077,0.0078,0,0,-0.0726,-0.0797,-0.082,-0.0832,-0.0851,-0.0838,-0.0824,-0.0761,-0.0678,-0.055,-0.0417,-0.0347,-0.0267,-0.012,-0.0081,0.0024,0.0032,0.0045,-0.0112,-0.0057,-0.0059,-0.003,0.0004,0,0,0,0,0]}],[{"header":{"parameterUnit":"m.s-1","parameterCategory":2,"la1":30.2991,"la2":30.254,"lo1":-89.0895,"lo2":-89.0444,"dy":0.0017,"dx":0.0017,"nx":28,"ny":28,"refTime":"2023-10-16T03:00:00:Z","depth":"4","parameterNumber":2,"parameterNumberName":"U-component_of_CURRENTS"},"data":[0,0,0,0,0,0,0,0,0,0,0,0,0,0,0,0,0,0,0,0,0,0,0,0,0,0,0,0,0,0,0,0,0,0,0,0,0,0,0,0,0,0,0,0,0,0,0,0,0,0,0,0,0,0,0,0,0,0,-0.124,-0.124,0,-0.1249,-0.1249,-0.1249,-0.1268,-0.1268,-0.1269,-0.1269,-0.1328,-0.1329,-0.133,0,0,0,0,0,0,0,0,0,0,0,0,0,-0.1237,-0.1237,-0.124,-0.124,-0.124,-0.1249,-0.1249,-0.1249,-0.1268,-0.1268,-0.1269,-0.1269,-0.1328,-0.1329,-0.133,0,0,0,0,0,0,0,0,0,0,0,0,0,-0.1241,-0.1237,-0.124,-0.1251,-0.1252,-0.1249,-0.1249,-0.1249,-0.1268,-0.1268,-0.1269,-0.127,-0.1327,-0.1329,-0.1331,-0.1328,0,0,-0.1336,-0.1337,0,0,0,0,0,0,0,0,-0.1241,-0.1241,-0.1249,-0.125,-0.1252,-0.1259,-0.127,-0.1278,-0.1268,-0.1261,-0.1269,-0.127,-0.1309,-0.1313,-0.1311,-0.1331,-0.1334,-0.1336,-0.1337,-0.1338,-0.1338,0,0,0,0,0,0,0,-0.124,-0.1241,-0.1243,-0.125,-0.1251,-0.1255,-0.1256,-0.1271,-0.1282,-0.1262,-0.1263,-0.1265,-0.131,-0.1309,-0.1313,-0.1334,-0.1336,-0.1338,-0.1339,-0.1339,-0.1402,-0.1403,0,0,0,0,0,0,-0.124,-0.124,-0.1243,-0.1243,-0.1248,-0.1255,-0.1256,-0.1255,-0.1281,-0.1285,-0.1265,-0.1266,-0.1306,-0.1311,-0.1315,-0.1351,-0.1338,-0.1339,-0.134,-0.1402,-0.1403,-0.1403,0,0,0,0,0,0,-0.124,-0.124,-0.1242,-0.1243,-0.1243,-0.1254,-0.1253,-0.1255,-0.1274,-0.1282,-0.1288,-0.1283,-0.1307,-0.1313,-0.1339,-0.1352,-0.134,-0.1342,-0.1401,-0.1402,-0.1403,-0.14,0,0,0,0,0,0,-0.1239,-0.124,-0.1249,-0.1243,-0.1243,-0.1251,-0.1253,-0.1255,-0.1273,-0.1275,-0.13,-0.1305,-0.1308,-0.1337,-0.1341,-0.1355,-0.1343,-0.14,-0.1401,-0.1403,-0.1399,-0.14,-0.1402,0,0,0,0,0,-0.1239,-0.1244,-0.1249,-0.125,-0.1253,-0.1251,-0.1252,-0.1261,-0.1273,-0.1281,-0.1297,-0.1305,-0.1347,-0.1338,-0.1343,-0.1358,-0.14,-0.1401,-0.1403,-0.1398,-0.14,-0.1402,0,0,0,0,0,0,-0.125,-0.1247,-0.1252,-0.1257,-0.1261,-0.1255,-0.1266,-0.1272,-0.129,-0.1301,-0.1311,-0.1316,-0.1349,-0.1353,-0.1343,-0.138,-0.1376,-0.1379,-0.1372,-0.1373,-0.1375,-0.1338,-0.1345,0,0,0,0,0,-0.1256,-0.126,-0.1257,-0.1265,-0.1267,-0.1271,-0.1277,-0.1283,-0.1292,-0.1301,-0.1317,-0.1336,-0.1354,-0.1364,-0.1383,-0.1399,-0.1383,-0.1413,-0.1414,-0.1415,-0.139,-0.1369,-0.1365,-0.1408,-0.1408,-0.1408,0,0,-0.1265,-0.1263,-0.1267,-0.1268,-0.1272,-0.1279,-0.1277,-0.1289,-0.1301,-0.1305,-0.1335,-0.1348,-0.1362,-0.1382,-0.1396,-0.1388,-0.1402,-0.1417,-0.1418,-0.1391,-0.137,-0.1366,-0.1362,-0.1409,-0.1409,-0.1409,0,0,-0.1272,-0.128,-0.1284,-0.1287,-0.1295,-0.1297,-0.1305,-0.131,-0.1322,-0.1343,-0.1353,-0.1359,-0.1399,-0.1391,-0.1398,-0.1416,-0.1416,-0.1443,-0.1412,-0.1393,-0.1388,-0.1384,-0.1383,-0.1379,-0.1436,-0.1436,-0.1436,0,-0.1286,-0.1286,-0.1286,-0.129,-0.1295,-0.1308,-0.1313,-0.1327,-0.1342,-0.1334,-0.1359,-0.137,-0.1394,-0.1382,-0.1394,-0.1416,-0.1413,-0.1404,-0.1392,-0.1387,-0.1383,-0.1382,-0.1377,-0.1436,-0.1436,-0.1436,-0.1436,0,-0.1287,-0.1299,-0.1303,-0.1311,-0.1316,-0.1326,-0.1335,-0.1342,-0.1361,-0.1359,-0.136,-0.1373,-0.1366,-0.1388,-0.1402,-0.1383,-0.1396,-0.1401,-0.1381,-0.1377,-0.1379,-0.1374,-0.1436,-0.1436,-0.1436,-0.1436,0,0,-0.1286,-0.1301,-0.1306,-0.1303,-0.1328,-0.1318,-0.134,-0.1334,-0.1314,-0.1343,-0.131,-0.1345,-0.1333,-0.1337,-0.1349,-0.133,-0.1321,-0.1354,-0.1353,-0.1341,-0.1294,-0.1212,-0.1199,-0.1327,-0.1326,-0.1325,-0.1315,0,-0.1291,-0.1299,-0.1306,-0.1312,-0.1312,-0.1319,-0.132,-0.1315,-0.1317,-0.1292,-0.1292,-0.1284,-0.1323,-0.1313,-0.1304,-0.132,-0.1303,-0.1323,-0.1308,-0.1307,-0.1224,-0.1188,-0.132,-0.1311,-0.131,-0.1309,-0.1308,0,-0.1284,-0.1289,-0.1303,-0.1283,-0.128,-0.1283,-0.1249,-0.125,-0.1225,-0.1222,-0.1204,-0.1212,-0.1205,-0.1232,-0.1235,-0.1251,-0.1267,-0.1272,-0.1273,-0.1182,-0.1213,-0.1311,-0.1299,-0.13,-0.13,-0.1301,-0.1301,0,-0.1263,-0.1273,-0.1282,-0.1286,-0.1279,-0.1263,-0.1248,-0.1222,-0.1197,-0.1172,-0.1154,-0.1145,-0.1147,-0.1155,-0.1199,-0.1219,-0.1188,-0.1219,-0.1152,-0.1149,-0.1229,-0.1234,-0.119,-0.119,-0.119,-0.119,-0.119,0,-0.1248,-0.1249,-0.1268,-0.1268,-0.1222,-0.1233,-0.1174,-0.1153,-0.1126,-0.1092,-0.1115,-0.109,-0.1129,-0.1129,-0.1163,-0.1136,-0.1167,-0.1119,-0.1121,-0.1235,-0.124,-0.1227,-0.1232,-0.1189,-0.1189,-0.119,-0.119,0,-0.1215,-0.1246,-0.1231,-0.1226,-0.1213,-0.1172,-0.1119,-0.1079,-0.1077,-0.1036,-0.1035,-0.105,-0.1057,-0.1079,-0.109,-0.1083,-0.1069,-0.1052,-0.117,-0.1185,-0.1058,-0.1063,-0.0966,-0.0963,-0.096,-0.0957,-0.0955,0,-0.1195,-0.1203,-0.1188,-0.1151,-0.1145,-0.1095,-0.1058,-0.1045,-0.1024,-0.1013,-0.1002,-0.0996,-0.1009,-0.0949,-0.0991,-0.0995,-0.0997,-0.0983,-0.1007,-0.1012,-0.1026,-0.1035,-0.1044,-0.0951,-0.095,-0.0949,-0.0949,0,-0.1147,-0.1161,-0.113,-0.1071,-0.103,-0.0986,-0.0954,-0.0927,-0.0936,-0.0954,-0.0927,-0.0906,-0.0895,-0.0899,-0.0888,-0.0906,-0.0983,-0.0953,-0.096,-0.0982,-0.0993,-0.1011,-0.1023,-0.0939,-0.094,-0.0941,-0.0942,0,-0.1091,-0.104,-0.1015,-0.0927,-0.0908,-0.0884,-0.0869,-0.0853,-0.0832,-0.0859,-0.0853,-0.0862,-0.089,-0.0853,-0.0858,-0.0841,-0.0845,-0.0835,-0.0848,-0.0859,-0.0827,-0.0825,-0.069,0,0,0,0,0,-0.1032,-0.0945,-0.0867,-0.0778,-0.0785,-0.0782,-0.0803,-0.0817,-0.0852,-0.0812,-0.0826,-0.0818,-0.0788,-0.0795,-0.0758,-0.0817,-0.0853,-0.077,-0.0849,-0.0883,-0.0895,-0.0865,0,0,0,0,0,0,-0.0966,-0.0908,-0.0823,-0.0705,-0.0646,-0.0651,-0.0676,-0.0711,-0.0697,-0.0739,-0.0729,-0.0761,-0.0749,-0.0788,-0.0734,-0.0738,-0.0771,-0.0783,-0.0781,-0.0877,-0.0887,-0.0896,-0.087,0,0,0,0,0]},{"header":{"parameterUnit":"m.s-1","parameterCategory":2,"la1":30.2991,"la2":30.254,"lo1":-89.0895,"lo2":-89.0444,"dy":0.0017,"dx":0.0017,"nx":28,"ny":28,"refTime":"2023-10-16T03:00:00:Z","depth":"4","parameterNumber":3,"parameterNumberName":"V-component_of_CURRENTS"},"data":[0,0,0,0,0,0,0,0,0,0,0,0,0,0,0,0,0,0,0,0,0,0,0,0,0,0,0,0,0,0,0,0,0,0,0,0,0,0,0,0,0,0,0,0,0,0,0,0,0,0,0,0,0,0,0,0,0,0,-0.0257,-0.0257,0,-0.0277,-0.0277,-0.0277,-0.0289,-0.0289,-0.029,-0.029,-0.0275,-0.0274,-0.0274,0,0,0,0,0,0,0,0,0,0,0,0,0,-0.021,-0.0211,-0.0257,-0.0257,-0.0258,-0.0277,-0.0277,-0.0277,-0.0289,-0.0289,-0.029,-0.029,-0.0275,-0.0274,-0.0274,0,0,0,0,0,0,0,0,0,0,0,0,0,-0.0229,-0.0211,-0.0257,-0.0267,-0.0268,-0.0277,-0.0277,-0.0277,-0.0289,-0.0289,-0.029,-0.029,-0.0275,-0.0274,-0.0273,-0.0263,0,0,-0.0271,-0.027,0,0,0,0,0,0,0,0,-0.0228,-0.0231,-0.0265,-0.0266,-0.0268,-0.0282,-0.0255,-0.0271,-0.0289,-0.028,-0.029,-0.029,-0.0274,-0.0274,-0.0276,-0.0262,-0.0262,-0.0271,-0.027,-0.027,-0.027,0,0,0,0,0,0,0,-0.0227,-0.023,-0.0264,-0.0266,-0.0267,-0.0264,-0.0267,-0.0258,-0.0274,-0.0281,-0.0282,-0.0286,-0.0275,-0.0276,-0.0275,-0.0261,-0.0271,-0.027,-0.027,-0.0269,-0.0283,-0.0283,0,0,0,0,0,0,-0.0228,-0.0229,-0.0263,-0.0264,-0.0249,-0.0264,-0.0268,-0.0276,-0.0275,-0.0276,-0.0286,-0.0286,-0.0278,-0.0276,-0.0275,-0.0307,-0.027,-0.0269,-0.0269,-0.0282,-0.0283,-0.0284,0,0,0,0,0,0,-0.0227,-0.0231,-0.0262,-0.0247,-0.0251,-0.0265,-0.0274,-0.0276,-0.0287,-0.0279,-0.0279,-0.0295,-0.0278,-0.0276,-0.0284,-0.0305,-0.0269,-0.0268,-0.0281,-0.0282,-0.0283,-0.0343,0,0,0,0,0,0,-0.0225,-0.023,-0.0238,-0.0248,-0.0252,-0.0275,-0.0274,-0.0277,-0.0289,-0.029,-0.0287,-0.0285,-0.0278,-0.0285,-0.0283,-0.0303,-0.0267,-0.028,-0.0281,-0.0283,-0.034,-0.0346,-0.0351,0,0,0,0,0,-0.0223,-0.0232,-0.0239,-0.0243,-0.0263,-0.0275,-0.0277,-0.0287,-0.0289,-0.0296,-0.03,-0.0286,-0.0294,-0.0285,-0.0283,-0.0303,-0.0279,-0.0281,-0.0283,-0.0337,-0.0345,-0.0351,0,0,0,0,0,0,-0.0215,-0.0235,-0.0242,-0.0256,-0.0269,-0.0278,-0.0286,-0.0291,-0.03,-0.0303,-0.0295,-0.0294,-0.0311,-0.0296,-0.0286,-0.0311,-0.0285,-0.0286,-0.0327,-0.0334,-0.034,-0.0373,-0.0267,0,0,0,0,0,-0.0218,-0.0232,-0.0247,-0.026,-0.0267,-0.0278,-0.0285,-0.0292,-0.03,-0.0305,-0.0305,-0.0306,-0.0315,-0.0316,-0.0316,-0.0324,-0.0315,-0.0336,-0.0342,-0.0347,-0.0372,-0.0403,-0.0415,-0.029,-0.029,-0.029,0,0,-0.0218,-0.0231,-0.0239,-0.0259,-0.0269,-0.0291,-0.0283,-0.0297,-0.0322,-0.03,-0.0329,-0.0325,-0.0322,-0.0341,-0.0346,-0.0331,-0.0364,-0.0349,-0.0354,-0.0377,-0.0407,-0.0419,-0.043,-0.0291,-0.0291,-0.0291,0,0,-0.0226,-0.0238,-0.0254,-0.0269,-0.0289,-0.03,-0.0307,-0.0323,-0.0336,-0.0356,-0.0357,-0.0382,-0.0368,-0.0395,-0.04,-0.0439,-0.0396,-0.0415,-0.0471,-0.05,-0.0511,-0.0521,-0.0469,-0.0474,-0.0416,-0.0417,-0.0417,0,-0.0226,-0.0257,-0.0259,-0.0281,-0.0307,-0.0308,-0.0341,-0.0351,-0.0369,-0.0396,-0.0372,-0.0412,-0.0409,-0.0464,-0.0476,-0.0458,-0.0428,-0.0444,-0.051,-0.052,-0.0529,-0.0473,-0.0478,-0.042,-0.0419,-0.0419,-0.0419,0,-0.0249,-0.0279,-0.029,-0.0327,-0.0349,-0.0376,-0.0397,-0.0419,-0.043,-0.045,-0.0498,-0.0499,-0.0533,-0.0525,-0.051,-0.0574,-0.0511,-0.0515,-0.0496,-0.0545,-0.0482,-0.0486,-0.0424,-0.0423,-0.0422,-0.0421,0,0,-0.0246,-0.0298,-0.0306,-0.0348,-0.0384,-0.0413,-0.045,-0.0505,-0.055,-0.0556,-0.0615,-0.0641,-0.0647,-0.0655,-0.0642,-0.0662,-0.0682,-0.061,-0.061,-0.0563,-0.0674,-0.0604,-0.06,-0.0686,-0.0689,-0.069,-0.0584,0,-0.0274,-0.0336,-0.0352,-0.0428,-0.0473,-0.0497,-0.0539,-0.0584,-0.0612,-0.0658,-0.0678,-0.072,-0.0692,-0.0708,-0.073,-0.0701,-0.0703,-0.0706,-0.063,-0.0627,-0.0566,-0.0609,-0.0698,-0.0586,-0.0587,-0.0588,-0.0588,0,-0.0298,-0.0348,-0.0423,-0.0514,-0.0534,-0.0574,-0.0668,-0.0704,-0.0758,-0.0777,-0.0823,-0.0822,-0.0862,-0.0825,-0.0817,-0.0809,-0.0757,-0.072,-0.0715,-0.0645,-0.0568,-0.054,-0.0595,-0.0594,-0.0594,-0.0593,-0.0593,0,-0.0321,-0.0404,-0.0477,-0.0506,-0.0592,-0.0639,-0.0686,-0.075,-0.0788,-0.086,-0.0874,-0.0925,-0.0922,-0.0911,-0.0831,-0.0826,-0.0782,-0.0772,-0.0653,-0.0642,-0.0708,-0.07,-0.0781,-0.0781,-0.0781,-0.0782,-0.0782,0,-0.0353,-0.0416,-0.0499,-0.0543,-0.0641,-0.0684,-0.0776,-0.0822,-0.0873,-0.0907,-0.094,-0.0945,-0.0944,-0.0904,-0.0851,-0.0748,-0.0802,-0.0674,-0.0637,-0.0723,-0.0719,-0.0706,-0.0699,-0.0778,-0.0779,-0.0779,-0.078,0,-0.0368,-0.0414,-0.0513,-0.0619,-0.0653,-0.0727,-0.0812,-0.0859,-0.0905,-0.094,-0.0957,-0.0957,-0.0902,-0.086,-0.0808,-0.0748,-0.0683,-0.063,-0.0674,-0.0637,-0.0505,-0.0502,-0.0499,-0.0496,-0.0494,-0.0492,-0.049,0,-0.0382,-0.0431,-0.0563,-0.0615,-0.0667,-0.0764,-0.0809,-0.0875,-0.0899,-0.0924,-0.0917,-0.0889,-0.0871,-0.0725,-0.0703,-0.06,-0.0583,-0.0532,-0.0583,-0.0526,-0.0489,-0.049,-0.049,-0.0487,-0.0486,-0.0485,-0.0485,0,-0.042,-0.0464,-0.0543,-0.0642,-0.071,-0.0779,-0.0836,-0.085,-0.0888,-0.0924,-0.0866,-0.0819,-0.0735,-0.0675,-0.0589,-0.0524,-0.0576,-0.0508,-0.0513,-0.056,-0.0511,-0.0477,-0.048,-0.0477,-0.0478,-0.0479,-0.0479,0,-0.0445,-0.0502,-0.0587,-0.067,-0.0738,-0.0761,-0.0806,-0.0805,-0.0828,-0.0833,-0.0805,-0.0754,-0.0738,-0.0629,-0.0559,-0.049,-0.0475,-0.0455,-0.0462,-0.0471,-0.0511,-0.0447,-0.0376,0,0,0,0,0,-0.0475,-0.0522,-0.06,-0.0685,-0.0735,-0.0765,-0.0799,-0.0823,-0.0841,-0.0783,-0.0794,-0.0716,-0.061,-0.0581,-0.0494,-0.0524,-0.0474,-0.042,-0.0457,-0.0432,-0.0441,-0.0491,0,0,0,0,0,0,-0.0494,-0.0569,-0.0599,-0.0655,-0.0698,-0.0743,-0.0756,-0.0772,-0.0737,-0.0748,-0.0691,-0.0682,-0.0586,-0.0655,-0.049,-0.0474,-0.048,-0.0386,-0.0384,-0.0427,-0.0435,-0.0443,-0.0497,0,0,0,0,0]}]]